Regional Weather Roundup
Issued by NWS

Home | Current Version | Previous Version | Text Only | Print | Product List | Glossary Off
Versions: 1 2 3 4 5 6 7 8 9 10 11 12 13 14 15 16 17 18 19 20 21 22 23 24 25 26 27 28 29 30 31 32 33 34 35 36 37 38 39 40 41 42 43 44 45 46 47 48 49 50

000
ASUS45 KABQ 232301
RWRNM
WEATHER ROUNDUP FOR NEW MEXICO
NATIONAL WEATHER SERVICE ALBUQUERQUE NM
500 PM MDT WED JUL 23 2014

NOTE: "FAIR" MEANS FEW OR NO CLOUDS BELOW 12,000 FEET AGL WITH NO
       SIGNIFICANT WEATHER OR OBSTRUCTIONS TO VISION.

      THIS PRODUCT IS RELEASED AS TWO VERSIONS.  ONE VERSION NEAR
      THE TOP OF THE HOUR CONTAINING PRELIMINARY DATA FROM ALBUQUERQUE
      AND OTHER STATIONS.  A FINAL VERSION WITH ADDITIONAL DATA IS
      ISSUED ABOUT 10 MINUTES AFTER THE HOUR.

NMZ501-503-504-510>518-240000-
NORTHWEST PLATEAU/NORTHCENTRAL MOUNTAINS

CITY           SKY/WX    TMP DP  RH WIND       PRES   REMARKS
FARMINGTON     SUNNY     97  36  12 SE14      30.19F
LOS ALAMOS     PTSUNNY   75  52  44 S13G20    30.47S
SANTA FE       CLOUDY    70  61  73 CALM      30.39F
TAOS           MOSUNNY   77  50  38 S15       30.42F THUNDER
ANGEL FIRE     FAIR      73  53  48 SE15      30.54F

$$
NMZ402-403-502-505>509-240000-
WESTCENTRAL MOUNTAINS/SOUTHWEST MOUNTAINS

CITY           SKY/WX    TMP DP  RH WIND       PRES   REMARKS
GALLUP         CLOUDY    85  47  26 NE6       30.31F
GRANTS         PTSUNNY   88  47  24 SE16G24   30.35F

$$
NMZ407-409-411-412-240000-
SOUTHERN DESERTS

CITY           SKY/WX    TMP DP  RH WIND       PRES   REMARKS
LORDSBURG      FAIR      88  52  29 E10       30.15F
DEMING         PTSUNNY   92  51  24 E14G21    30.15F
LAS CRUCES     MOSUNNY   95  44  17 SE14G26   30.19F
HOLLOMAN AFB   PTSUNNY   95  46  18 SE17G33   30.14F
T OR C         LGT RAIN  83  63  50 NW6       30.21F

$$
NMZ519>523-240000-
CENTRAL VALLEYS/CENTRAL HIGHLANDS

CITY           SKY/WX    TMP DP  RH WIND       PRES   REMARKS
ALBUQUERQUE    PTSUNNY   87  51  28 S7        30.29S
DOUBLE EAGLE   PTSUNNY   86  54  32 NE18      30.34R
CLINES CORNERS PTSUNNY   78  48  34 E14       30.44F
BELEN          FAIR      87  48  26 SE13      30.28S
SOCORRO        FAIR      91  48  22 SE12G17   30.23F

$$
NMZ524>526-539-540-240000-
SOUTHCENTRAL MOUNTAINS

CITY           SKY/WX    TMP DP  RH WIND       PRES   REMARKS
RUIDOSO        NOT AVBL

$$
NMZ527>531-240000-
NORTHEAST HIGHLANDS/NORTHEAST PLAINS

CITY           SKY/WX    TMP DP  RH WIND       PRES   REMARKS
LAS VEGAS      PTSUNNY   79  46  31 S10       30.43F
RATON          SUNNY     89  47  23 S16G22    30.35F
CLAYTON        SUNNY     92  47  21 S21G29    30.29F

$$
NMZ532>537-240000-
EASTCENTRAL PLAINS

CITY           SKY/WX    TMP DP  RH WIND       PRES   REMARKS
TUCUMCARI      SUNNY     97  47  18 SE8G20    30.20F
CANNON AFB     MOSUNNY   89  58  34 SE7       30.25F
CLOVIS AIRPORT MOSUNNY   91  55  29 SE10      30.27

$$
NMZ028-029-538-240000-
SOUTHEAST PLAINS

CITY           SKY/WX    TMP DP  RH WIND       PRES   REMARKS
ROSWELL        SUNNY     96  49  20 SE15      30.16F
ARTESIA        SUNNY     95  46  18 SE13G20   30.15F
CARLSBAD       MOSUNNY   99  45  15 SE15G24   30.11F HX  95
HOBBS          MOSUNNY   95  46  18 E14G20    30.18F


$$



USA.gov is the U.S. government's official web portal to all federal, state and local government web resources and services.